Location: Unspecified
(0.0000°N, 0.0000°E)
Time: 07:02:32
(UTC+00:00)

S-56A Canister/Altair - Pass Details

Date: 25 May 2024
Orbit: 637 x 2489 km, 38.9° (Epoch: 22 June)

Event Time Altitude Azimuth Distance (km) Brightness Sun altitude
Rises 05:19:41 0° 276° (W) 6,157 - -8.7°
Exits shadow 05:20:35 - 278° (W) 6,000 11.5 -8.5°
Reaches altitude 10° 05:26:55 10° 297° (WNW) 5,036 11.3 -7.0°
Maximum altitude 05:33:27 14° 325° (NW) 4,450 11.3 -5.5°
Drops below altitude 10° 05:39:26 10° 353° (N) 4,493 11.6 -4.1°
Sets 05:45:14 0° 17° (NNE) 5,098 12.3 -2.7°
